Showing default

DMSP 5D-2 F11 (USA 73), 21798

Orbit data source: Space-Track

DMSP 5D-2 F11 (USA 73), 21798 is a payload satellite owned by USAF SSD (US) in SSO that was launched on Thu, 28 Nov 1991 UTC via an ATLAS E launch vehicle from the Air Force Western Test Range (AFWTR). Payload-class satellites include a variety of spacecraft equipped with specific instruments for various scientific and technological missions. These include communications satellites like Starlink; space stations such as the ISS; scientific satellites like the Hubble; Earth observation satellites from companies like Planet Labs, Umbra, and HawkEye 360; GPS; miniature CubeSats for education and research; and military/defense satellites.

Loading next visibility...
Identifier
21798, 1991-082A
Orbit
SSO
Country
Flag of USUS
Related business
Manufacturer
GE/East Windsor
Mission
Non-operational Defense Weather
Bus & Motor
BLOCK 5D, STAR 37S
Mass
1,456 kg wet, 749 kg dry
Launch date (UTC)
1991-11-28 (35 years ago)
Launch vehicle
ATLAS E
Launch site
Air Force Western Test Range (AFWTR)
Object type
Payload
Rocket body
Debris
Shape & HBR
Cyl + 1 Pan, 2.5 m
Radar Cross Section
4.290 m², Large (>1 m²)

Expand to show TLE details & history
Last TLE update: 12 hours ago

TLE from 12 hours ago
0 DMSP 5D-2 F11 (USA 73)
1 21798U 91082A   26208.58223910  .00000082  00000-0  61655-4 0  9992
2 21798  98.6898 235.9591 0013034 150.5546 209.6366 14.17456962790854
Epoch: 2026-07-27T13:58Z
TLE epoch observation values (Epoch: 2026-07-27T13:58:25.458Z)
Latitude
0.00001°
Longitude
81.08928°
Altitude
845.053 km
Speed
7.426 km/s
True Right ascension
15h 43m 50s
True Declination
0° 00' 00"
Sunlit
Object was in daylight at epoch
Visualization orbit readout
Latitude
Unknown
Longitude
Unknown
Altitude
Unknown
Speed
Unknown
Apparent Right ascension
Unknown
Apparent Declination
Unknown
Sunlit
N/A
Visualization observer readout
Local Sidereal Time
15:13:53
Azimuth
Unknown
Elevation
Unknown
Doppler factor
Unknown
Orbital elements
Apogee altitude
840.524 km
Perigee altitude
821.73 km
Semi-major axis
7,209.264 km
Eccentricity
0.0013
Inclination
98.6898°
RAAN
235.9591°
Arg. of periapsis
150.5546°
True anomaly
209.56285°
Mean anomaly
209.6366°
Eccentric anomaly
209.59971°
Mean motion
3.54574 °/min
Orbital period
101.53 mins
BSTAR
0.000061655
Loading maneuver chart data...
Computing Atmospheric mass density...

Documentation

Showing up to 5 results
|